Tracking 18980 objects as of 19-Feb-2018
HD Live streaming from Space Station
objects crossing your sky now

FENGYUN 1C DEB

Track FENGYUN 1C DEB now!
10-day predictions


NORAD ID: 30085
Int'l Code: 1999-025QN
Perigee: 534.9 km
Apogee: 684.5 km
Inclination: 98.4 °
Period: 96.7 minutes
Semi major axis: 6980 km
RCS: 0.045 m2 (small)
Launch date: May 10, 1999
Source: People's Republic of China (PRC)
Launch site: Taiyaun Space Center, China (TSC)

Note: This is SATELLITE DEBRIS
aabbcc
Your satellite tracking list
Your tracking list is empty




NASA's NSSDC Master Catalog

Two Line Element Set (TLE):
1 30085U 99025QN  18050.37758952 +.00002742 +00000-0 +27187-3 0  9994
2 30085 098.4378 201.4021 0107157 041.7759 319.1574 14.88518088591760
Source of the keplerian elements: AFSPC